Home > Weather > Vancouver > Past weeks

Flag for USA Past Weather in Vancouver, Washington, USA — Yesterday and Last 2 Weeks

Now
57 °F

Overcast.


Feels Like: 57 °F
Forecast: 54 / 67 °F
Wind: No wind

Location: Vancouver - Pearson Airpark

Current Time: May 29, 2016 at 2:53:41 AM

Latest Report: May 29, 2016 at 1:53 AM


Visibility: 10 mi

Pressure: 30.07 "Hg

Humidity: 81%

Dew Point: 51 °F

Location of VancouverLocation

Past Weather in Vancouver — Graph

°F

Vancouver Temperature Yesterday

Maximum temperature yesterday: 70 °F (at 4:53 PM)
Minimum temperature yesterday: 47 °F (at 4:53 AM)
Average temperature yesterday: 59 °F

High & Low Weather Summary for the Past Weeks

 TemperatureHumidityPressure
High74 °F (May 17, 3:53 PM)97% (May 15, 1:00 AM)30.27 "Hg (May 15, 1:00 AM)
Low47 °F (May 28, 4:53 AM)33% (May 18, 11:53 AM)29.72 "Hg (May 20, 5:53 PM)
Average57 °F72%30.04 "Hg
* Reported May 14 12:53 AM — May 29 12:53 AM, Vancouver, Weather by CustomWeather, © 2016

Note: Actual official high and low records may vary slightly from our data, if they occured in-between our weather recording intervals... More about our weather records

Advertising

Vancouver Weather History for the Previous 24 Hours

Scroll right to see more
 ConditionsComfort  
Time TempWeatherWind HumidityBarometerVisibility
12:53 AM
Sun, May 29
57 °FPassing clouds.No wind78%30.06 "Hg10 mi
11:53 PM
Sat, May 28
58 °FPassing clouds.3 mph75%30.06 "Hg10 mi
10:53 PM59 °FOvercast.7 mph72%30.05 "Hg10 mi
9:53 PM60 °FPassing clouds.6 mph69%30.04 "Hg10 mi
8:53 PM63 °FScattered clouds.6 mph63%30.01 "Hg10 mi
7:53 PM69 °FPartly sunny.6 mph44%30.00 "Hg10 mi
6:53 PM70 °FPartly sunny.3 mph42%29.99 "Hg10 mi
5:53 PM70 °FMostly cloudy.3 mph41%30.00 "Hg10 mi
4:53 PM70 °FOvercast.5 mph39%30.02 "Hg10 mi
3:53 PM69 °FPartly sunny.5 mph36%30.03 "Hg10 mi
2:53 PM68 °FSunny.6 mph39%30.05 "Hg10 mi
1:53 PM66 °FSunny.3 mph42%30.06 "Hg10 mi
12:53 PM64 °FScattered clouds.No wind45%30.09 "Hg10 mi
11:53 AM63 °FBroken clouds.3 mph48%30.10 "Hg10 mi
10:53 AM60 °FScattered clouds.No wind53%30.11 "Hg10 mi
9:53 AM56 °FSunny.5 mph67%30.12 "Hg10 mi
8:53 AM55 °FSunny.5 mph69%30.14 "Hg10 mi
7:53 AM52 °FSunny.3 mph80%30.14 "Hg10 mi
6:53 AM50 °FOvercast.5 mph86%30.14 "Hg10 mi
5:53 AM49 °FOvercast.No wind86%30.14 "Hg10 mi
4:53 AM47 °FOvercast.No wind86%30.15 "Hg10 mi
3:53 AM48 °FPassing clouds.No wind86%30.15 "Hg10 mi
2:53 AM49 °FOvercast.No wind84%30.16 "Hg10 mi
Weather by CustomWeather, © 2016

See weather overviewHow to use our weather pages